When you browse on this site, cookies collect data to enhance your experience and personalize the content and advertising you see.
Visit our Privacy Policy to learn more. By continuing to use the site, you agree to this use of cookies and data.
  • In Czech Republic
  • List of Countries
  • For 7 days
  • Water Temperature
  • Satellite Maps
  • Weather Map
  • Weather Widgets
  • user-avatar
    Login

    Hourly Weather Ozereckoe

    Today, 20 January, Sunday

    Time Temperature Precipitation Wind Pressure Humidity
    00:00 -9°C° 0 mm 4 mps 736 mmHg 90%
    01:00 -9°C° 0 mm 4 mps 735 mmHg 89%
    02:00 -9°C° 0 mm 4 mps 735 mmHg 88%
    03:00 -10°C° 0.1 mm 5 mps 734 mmHg 88%
    04:00 -10°C° 0.1 mm 5 mps 734 mmHg 88%
    05:00 -10°C° 0.1 mm 6 mps 733 mmHg 89%
    06:00 -9°C° 0.2 mm 6 mps 733 mmHg 88%
    07:00 -9°C° 0.2 mm 6 mps 732 mmHg 87%
    08:00 -8°C° 0 mm 6 mps 732 mmHg 87%
    09:00 -6°C° 0.4 mm 6 mps 732 mmHg 87%
    10:00 -6°C° 0.4 mm 6 mps 731 mmHg 88%
    11:00 -6°C° 0.4 mm 6 mps 731 mmHg 89%
    12:00 -6°C° 0.2 mm 6 mps 731 mmHg 86%
    13:00 -6°C° 0.2 mm 6 mps 731 mmHg 83%
    14:00 -6°C° 0.2 mm 5 mps 731 mmHg 80%
    15:00 -7°C° 0 mm 5 mps 731 mmHg 81%
    16:00 -7°C° 0 mm 5 mps 731 mmHg 83%
    17:00 -8°C° 0 mm 5 mps 731 mmHg 84%
    18:00 -8°C° 0 mm 5 mps 731 mmHg 85%
    19:00 -10°C° 0 mm 5 mps 731 mmHg 86%
    20:00 -10°C° 0 mm 5 mps 731 mmHg 87%
    21:00 -10°C° 0 mm 4 mps 732 mmHg 88%
    22:00 -11°C° 0 mm 4 mps 732 mmHg 90%
    23:00 -12°C° 0 mm 3 mps 733 mmHg 91%

    Tomorrow, 21 January, Monday

    Time Temperature Precipitation Wind Pressure Humidity
    00:00 -12°C° 0 mm 3 mps 733 mmHg 92%
    01:00 -13°C° 0 mm 3 mps 733 mmHg 93%
    02:00 -13°C° 0 mm 2 mps 734 mmHg 93%
    03:00 -13°C° 0 mm 2 mps 734 mmHg 94%
    04:00 -13°C° 0 mm 2 mps 734 mmHg 95%
    05:00 -13°C° 0 mm 2 mps 734 mmHg 95%
    06:00 -13°C° 0 mm 2 mps 734 mmHg 95%
    07:00 -14°C° 0 mm 2 mps 734 mmHg 96%
    08:00 -14°C° 0 mm 2 mps 734 mmHg 96%
    09:00 -14°C° 0.1 mm 3 mps 734 mmHg 94%
    10:00 -14°C° 0.1 mm 3 mps 734 mmHg 92%
    11:00 -14°C° 0.1 mm 3 mps 735 mmHg 90%
    12:00 -14°C° 0.1 mm 3 mps 735 mmHg 88%
    13:00 -14°C° 0.1 mm 3 mps 735 mmHg 87%
    14:00 -14°C° 0.1 mm 3 mps 735 mmHg 86%
    15:00 -15°C° 0 mm 3 mps 736 mmHg 88%
    16:00 -17°C° 0 mm 3 mps 736 mmHg 91%
    17:00 -18°C° 0 mm 3 mps 736 mmHg 94%
    18:00 -19°C° 0 mm 3 mps 736 mmHg 95%
    19:00 -21°C° 0 mm 3 mps 737 mmHg 96%
    20:00 -22°C° 0 mm 3 mps 737 mmHg 97%
    21:00 -22°C° 0 mm 3 mps 737 mmHg 97%
    22:00 -23°C° 0 mm 3 mps 738 mmHg 97%
    23:00 -23°C° 0 mm 3 mps 738 mmHg 97%

    Day after tomorrow, 22 January, Tuesday

    Time Temperature Precipitation Wind Pressure Humidity
    00:00 -23°C° 0 mm 3 mps 738 mmHg 97%
    01:00 -23°C° 0 mm 3 mps 739 mmHg 97%
    02:00 -23°C° 0 mm 3 mps 739 mmHg 97%
    03:00 -24°C° 0 mm 3 mps 739 mmHg 97%
    04:00 -23°C° 0 mm 2 mps 739 mmHg 97%
    05:00 -23°C° 0 mm 2 mps 739 mmHg 98%
    06:00 -23°C° 0 mm 2 mps 740 mmHg 98%
    07:00 -24°C° 0 mm 2 mps 740 mmHg 98%
    08:00 -24°C° 0 mm 2 mps 740 mmHg 98%
    09:00 -21°C° 0 mm 2 mps 741 mmHg 97%
    10:00 -20°C° 0 mm 2 mps 741 mmHg 96%
    11:00 -19°C° 0 mm 2 mps 741 mmHg 95%
    12:00 -18°C° 0 mm 2 mps 741 mmHg 95%
    13:00 -17°C° 0 mm 2 mps 741 mmHg 95%
    14:00 -16°C° 0 mm 2 mps 741 mmHg 95%
    15:00 -18°C° 0 mm 2 mps 741 mmHg 96%
    16:00 -19°C° 0 mm 2 mps 741 mmHg 97%
    17:00 -20°C° 0 mm 2 mps 741 mmHg 98%
    18:00 -21°C° 0 mm 2 mps 741 mmHg 98%
    19:00 -21°C° 0 mm 2 mps 741 mmHg 98%
    20:00 -21°C° 0 mm 2 mps 741 mmHg 98%
    21:00 -21°C° 0 mm 2 mps 741 mmHg 98%
    22:00 -21°C° 0 mm 2 mps 741 mmHg 98%
    23:00 -21°C° 0 mm 2 mps 741 mmHg 98%

    23 January, Wednesday

    Time Temperature Precipitation Wind Pressure Humidity
    00:00 -19°C° 0 mm 2 mps 741 mmHg 98%
    01:00 -18°C° 0 mm 2 mps 741 mmHg 97%
    02:00 -16°C° 0 mm 2 mps 741 mmHg 97%
    03:00 -15°C° 0 mm 2 mps 740 mmHg 96%
    04:00 -14°C° 0 mm 2 mps 740 mmHg 96%
    05:00 -14°C° 0 mm 2 mps 740 mmHg 96%
    06:00 -13°C° 0 mm 2 mps 740 mmHg 96%
    07:00 -14°C° 0 mm 3 mps 740 mmHg 96%
    08:00 -14°C° 0 mm 3 mps 740 mmHg 95%
    09:00 -13°C° 0.1 mm 3 mps 740 mmHg 94%
    10:00 -12°C° 0.1 mm 3 mps 740 mmHg 94%
    11:00 -10°C° 0.1 mm 4 mps 740 mmHg 93%
    12:00 -10°C° 0 mm 4 mps 740 mmHg 92%
    13:00 -10°C° 0 mm 4 mps 740 mmHg 91%
    14:00 -9°C° 0 mm 4 mps 740 mmHg 91%
    15:00 -10°C° 0 mm 4 mps 740 mmHg 91%
    16:00 -12°C° 0 mm 4 mps 740 mmHg 92%
    17:00 -13°C° 0 mm 3 mps 740 mmHg 92%
    18:00 -14°C° 0 mm 3 mps 740 mmHg 93%
    19:00 -15°C° 0 mm 3 mps 740 mmHg 94%
    20:00 -16°C° 0 mm 3 mps 740 mmHg 95%
    21:00 -16°C° 0 mm 3 mps 740 mmHg 95%
    22:00 -16°C° 0 mm 3 mps 740 mmHg 95%
    23:00 -16°C° 0 mm 3 mps 741 mmHg 94%

    24 January, Thursday

    Time Temperature Precipitation Wind Pressure Humidity
    00:00 -17°C° 0 mm 3 mps 741 mmHg 94%
    01:00 -17°C° 0 mm 3 mps 741 mmHg 93%
    02:00 -17°C° 0 mm 3 mps 741 mmHg 92%
    03:00 -17°C° 0 mm 3 mps 741 mmHg 92%
    04:00 -17°C° 0 mm 3 mps 741 mmHg 93%
    05:00 -17°C° 0 mm 3 mps 740 mmHg 93%
    06:00 -17°C° 0 mm 2 mps 741 mmHg 93%
    07:00 -17°C° 0 mm 2 mps 741 mmHg 94%
    08:00 -17°C° 0 mm 2 mps 741 mmHg 94%
    09:00 -16°C° 0 mm 2 mps 741 mmHg 94%
    10:00 -13°C° 0 mm 1 mps 741 mmHg 94%
    11:00 -11°C° 0 mm 1 mps 741 mmHg 94%
    12:00 -11°C° 0 mm 1 mps 741 mmHg 94%
    13:00 -10°C° 0 mm 0 mps 741 mmHg 94%
    14:00 -9°C° 0 mm 0 mps 741 mmHg 93%
    15:00 -9°C° 0 mm 0 mps 741 mmHg 95%
    16:00 -10°C° 0 mm 1 mps 741 mmHg 96%
    17:00 -10°C° 0 mm 1 mps 741 mmHg 97%
    18:00 -10°C° 0 mm 1 mps 741 mmHg 97%
    19:00 -12°C° 0 mm 2 mps 741 mmHg 97%
    20:00 -12°C° 0 mm 2 mps 741 mmHg 97%
    21:00 -13°C° 0 mm 2 mps 741 mmHg 97%
    22:00 -13°C° 0 mm 2 mps 742 mmHg 97%
    23:00 -13°C° 0 mm 2 mps 742 mmHg 97%

    25 January, Friday

    Time Temperature Precipitation Wind Pressure Humidity
    00:00 -13°C° 0.1 mm 2 mps 742 mmHg 96%
    01:00 -14°C° 0.1 mm 3 mps 742 mmHg 96%
    02:00 -14°C° 0.1 mm 3 mps 742 mmHg 96%
    03:00 -14°C° 0.3 mm 3 mps 742 mmHg 96%
    04:00 -14°C° 0.3 mm 3 mps 742 mmHg 95%
    05:00 -14°C° 0.3 mm 3 mps 742 mmHg 95%
    06:00 -14°C° 0.3 mm 3 mps 742 mmHg 95%
    07:00 -15°C° 0.3 mm 3 mps 742 mmHg 95%
    08:00 -15°C° 0.3 mm 3 mps 742 mmHg 95%
    09:00 -15°C° 0.3 mm 3 mps 742 mmHg 95%
    10:00 -15°C° 0.3 mm 3 mps 742 mmHg 95%
    11:00 -15°C° 0.3 mm 3 mps 742 mmHg 95%
    12:00 -15°C° 0.4 mm 3 mps 742 mmHg 95%
    13:00 -14°C° 0.4 mm 3 mps 742 mmHg 95%
    14:00 -14°C° 0.4 mm 3 mps 742 mmHg 95%
    15:00 -15°C° 0.5 mm 3 mps 742 mmHg 95%
    16:00 -15°C° 0.5 mm 3 mps 742 mmHg 95%
    17:00 -15°C° 0.5 mm 3 mps 742 mmHg 95%
    18:00 -15°C° 0.4 mm 3 mps 742 mmHg 95%
    19:00 -15°C° 0.4 mm 3 mps 741 mmHg 95%
    20:00 -15°C° 0.4 mm 3 mps 741 mmHg 95%
    21:00 -15°C° 0.4 mm 3 mps 741 mmHg 95%
    22:00 -16°C° 0.4 mm 3 mps 741 mmHg 95%
    23:00 -16°C° 0.4 mm 3 mps 741 mmHg 95%
    Show more